Terminal Aerodrome Forecast
Issued by NWS

Home | Current Version | Previous Version | Text Only | Print | Product List | Glossary On
Versions: 1 2 3 4 5 6 7 8 9 10 11 12 13
569
FTUS45 KRIW 301125
TAFJAC
TAF
KJAC 301125Z 3012/3112 VRB05KT P6SM FEW120
     FM301600 22009KT P6SM SCT200
     FM302100 23011G18KT P6SM VCSH SCT100 BKN200
     FM310100 21008KT P6SM VCSH SCT090 BKN120
     FM310600 VRB06KT P6SM FEW110 SCT200
      AMD LTD TO CLD VIS AND WIND=

USA.gov is the U.S. government's official web portal to all federal, state and local government web resources and services.